This is the latest recevied weather packets stored in our database for station/object WA7ZVY-4. If no packets are shown the sender has not sent any weather packets the latest 10 day(s).
| Time | Temp. | Humidity | Pressure | Rain* | Wind** | Luminosity | Snow |
|---|---|---|---|---|---|---|---|
| 1777751576 | 12.78° C | 89% | 1014.5 hPa | 0 mm | - | - | - |
| 1777751342 | 12.78° C | 89% | 1014.5 hPa | 0 mm | - | - | - |
| 1777751269 | 12.78° C | 88% | 1014.5 hPa | 0 mm | - | - | - |
| 1777751025 | 12.78° C | 88% | 1014.5 hPa | 0 mm | - | - | - |
| 1777750962 | 12.78° C | 87% | 1014.5 hPa | 0 mm | - | - | - |
| 1777750708 | 12.78° C | 86% | 1014.6 hPa | 0 mm | - | - | - |
| 1777750655 | 12.78° C | 86% | 1014.7 hPa | 0 mm | - | - | - |
| 1777750348 | 12.78° C | 85% | 1014.6 hPa | 0 mm | - | - | - |
| 1777750042 | 12.78° C | 84% | 1014.8 hPa | 0 mm | - | - | - |
| 1777749757 | 13.33° C | 82% | 1014.9 hPa | 0 mm | - | - | - |
| 1777749734 | 13.33° C | 82% | 1014.9 hPa | 0 mm | - | - | - |
| 1777749440 | 13.89° C | 81% | 1015.1 hPa | 0 mm | - | - | - |
| 1777749427 | 13.89° C | 81% | 1015.1 hPa | 0 mm | - | - | - |
| 1777749120 | 14.44° C | 81% | 1015.1 hPa | 0 mm | - | - | - |
| 1777748806 | 15° C | 82% | 1015.2 hPa | 0 mm | - | - | - |
| 1777748507 | 14.44° C | 83% | 1015.1 hPa | 0 mm | - | - | - |
| 1777748489 | 14.44° C | 83% | 1015.1 hPa | 0 mm | - | - | - |
| 1777748199 | 14.44° C | 83% | 1015.1 hPa | 0 mm | - | - | - |
| 1777748172 | 14.44° C | 83% | 1015.2 hPa | 0 mm | - | - | - |
| 1777747892 | 13.89° C | 81% | 1015.2 hPa | 0 mm | - | - | - |
| 1777747856 | 13.89° C | 81% | 1015.2 hPa | 0 mm | - | - | - |
| 1777747585 | 14.44° C | 82% | 1015.1 hPa | 0 mm | - | - | - |
| 1777747538 | 14.44° C | 82% | 1015.2 hPa | 0 mm | - | - | - |
| 1777747278 | 14.44° C | 83% | 1015.3 hPa | 0 mm | - | - | - |
| 1777747221 | 14.44° C | 84% | 1015.3 hPa | 0 mm | - | - | - |
* Rain latest hour (hover to see other rain measurements)
** Current wind speed in m/s (hover to see current wind gust speed)